Location: Coll
(42.4728°N, 0.7714°E)
Time: 12:53:53
(UTC+00:00)

Cosmos 1953 - Pass Details

Date: 23 October 2020
Orbit: 540 x 556 km, 82.5° (Epoch: 01 December)

Event Time Altitude Azimuth Distance (km) Brightness Sun altitude
Rises 04:05:30 0° 355° (N) 2,722 5.9 -25.4°
Reaches altitude 10° 04:07:41 10° 358° (N) 1,827 5.0 -25.0°
Maximum altitude 04:11:40 63° 80° (E) 618 2.7 -24.2°
Drops below altitude 10° 04:15:39 10° 162° (SSE) 1,821 5.1 -23.5°
Sets 04:17:49 0° 166° (SSE) 2,713 6.0 -23.1°
